Погода в Крайове

Румыния     44°19′06″N   23°48′19″E
темп.,
°C
ветер,
м/с
пор.,
м/с
влажн.,
%
обл.,
%
осадки,
мм/ч
давл.,
гПа
погр.,
м
1 августа, вс
вс100:00+26з22420 0.0 101014
03:00+25зсз22490 0.0 101020
06:00+22св11590 0.0 101011
09:00+28всв10420 0.0 1011302
12:00+35ю33250 0.0 10101243
15:00+40юз44150 0.0 10082979
18:00+40юв481319 0.0 10063822
21:00+33ю33202 0.0 100533
2 августа, пн
пн200:00+29ююз332589 0.0 100727
03:00+27з47300 0.0 100787
06:00+25с11351 0.0 100711
09:00+31з232596 0.0 1009266
12:00+37з812180 0.0 10092908
15:00+38з1012160 0.0 10082793
18:00+37зсз89165 0.0 10082514
21:00+30сз511230 0.0 1009257
3 августа, вт
вт300:00+25сз47350 0.0 1012108
03:00+22с22425 0.0 101314
06:00+21ссз33465 0.0 101432
09:00+27ссз33310 0.0 1015402
12:00+33сз35210 0.0 10152540
15:00+37з671515 0.0 10123530
18:00+36зсз571464 0.0 10113757
21:00+30сз4819100 0.0 1012132
4 августа, ср
ср400:00+27ссв3529100 0.1 101464
03:00+23св595160 0.1 1015296
06:00+21св256391 0.0 101583
09:00+25всв345411 0.0 1016578
12:00+31в32340 0.0 10151726
15:00+36юв23230 0.0 10132994
18:00+36ююз34201 0.0 10113354
21:00+30юв33280 0.0 101119
5 августа, чт
чт500:00+26в512435 0.0 1012258
03:00+23св59624 0.0 1013167
06:00+22всв511650 0.0 1012275
09:00+26в57493 0.0 1012492
12:00+34вюв33315 0.0 10111119
15:00+39вюв23204 0.0 10072365
18:00+39юв6717100 0.0 10043798
21:00+25з51052100 1.4 1008270